Location: 433rd Scouts Home(Lloyd Manor Park, Etobicoke )
(43.6722°N, 79.5542°W)
Time: 18:22:54
(UTC-04:00)

N. Korean satellite - Pass Details

Date: 30 September 2021
Orbit: 450 x 495 km, 97.3° (Epoch: 21 October)

Event Time Altitude Azimuth Distance (km) Brightness Sun altitude
Rises 06:35:08 0° 12° (NNE) 2,545 10.4 -8.0°
Reaches altitude 10° 06:37:12 10° 14° (NNE) 1,668 9.5 -7.7°
Maximum altitude 06:40:47 83° 103° (ESE) 496 6.7 -7.0°
Drops below altitude 10° 06:44:24 10° 191° (S) 1,676 9.2 -6.4°
Sets 06:46:28 0° 192° (SSW) 2,557 10.1 -6.0°
